• In Czech Republic
  • List of Countries
  • For 7 days
  • Water Temperature
  • Satellite Maps
  • Weather Map
  • Weather Widgets
  • user-avatar
    Login

    Hourly Weather Salzburg

    Today, 23 September, Sunday

    Time Temperature Precipitation Wind Pressure Humidity
    00:00 +6°C° 0.1 mm 0 mps 629 mmHg 83%
    01:00 +6°C° 0.1 mm 0 mps 629 mmHg 85%
    02:00 +6°C° 0.3 mm 0 mps 629 mmHg 87%
    03:00 +7°C° 0.3 mm 1 mps 629 mmHg 89%
    04:00 +7°C° 0.3 mm 1 mps 628 mmHg 91%
    05:00 +8°C° 0.7 mm 1 mps 628 mmHg 92%
    06:00 +8°C° 0.7 mm 1 mps 628 mmHg 93%
    07:00 +8°C° 0.7 mm 1 mps 628 mmHg 94%
    08:00 +10°C° 0.2 mm 1 mps 629 mmHg 91%
    09:00 +12°C° 0.2 mm 1 mps 629 mmHg 88%
    10:00 +13°C° 0.2 mm 1 mps 630 mmHg 85%
    11:00 +15°C° 0 mm 1 mps 630 mmHg 78%
    12:00 +18°C° 0 mm 1 mps 630 mmHg 71%
    13:00 +19°C° 0 mm 1 mps 630 mmHg 65%
    14:00 +19°C° 0.2 mm 1 mps 630 mmHg 68%
    15:00 +19°C° 0.2 mm 1 mps 629 mmHg 71%
    16:00 +18°C° 0.2 mm 2 mps 628 mmHg 74%
    17:00 +16°C° 0.5 mm 2 mps 627 mmHg 80%
    18:00 +14°C° 0.5 mm 2 mps 627 mmHg 86%
    19:00 +13°C° 0.5 mm 2 mps 626 mmHg 92%
    20:00 +12°C° 1.1 mm 2 mps 625 mmHg 93%
    21:00 +12°C° 1.1 mm 2 mps 625 mmHg 93%
    22:00 +12°C° 1.1 mm 2 mps 625 mmHg 94%
    23:00 +10°C° 2.8 mm 3 mps 625 mmHg 95%

    Tomorrow, 24 September, Monday

    Time Temperature Precipitation Wind Pressure Humidity
    00:00 +8°C° 2.8 mm 4 mps 625 mmHg 96%
    01:00 +6°C° 2.8 mm 4 mps 625 mmHg 97%
    02:00 +5°C° 1.4 mm 4 mps 626 mmHg 97%
    03:00 +4°C° 1.4 mm 4 mps 627 mmHg 96%
    04:00 +1°C° 1.4 mm 4 mps 627 mmHg 96%
    05:00 +2°C° 0.5 mm 3 mps 628 mmHg 96%
    06:00 +1°C° 0.5 mm 3 mps 628 mmHg 96%
    07:00 +1°C° 0.5 mm 3 mps 629 mmHg 95%
    08:00 +1°C° 0.3 mm 3 mps 629 mmHg 92%
    09:00 +1°C° 0.3 mm 3 mps 630 mmHg 89%
    10:00 +1°C° 0.3 mm 4 mps 631 mmHg 86%
    11:00 +1°C° 0.3 mm 4 mps 631 mmHg 83%
    12:00 +2°C° 0.3 mm 3 mps 632 mmHg 80%
    13:00 +3°C° 0.3 mm 3 mps 632 mmHg 77%
    14:00 +3°C° 0.2 mm 3 mps 632 mmHg 76%
    15:00 +3°C° 0.2 mm 3 mps 632 mmHg 76%
    16:00 +3°C° 0.2 mm 3 mps 632 mmHg 75%
    17:00 +1°C° 0.1 mm 3 mps 632 mmHg 80%
    18:00 +1°C° 0.1 mm 2 mps 632 mmHg 85%
    19:00 -1°C° 0.1 mm 2 mps 633 mmHg 90%
    20:00 -2°C° 0 mm 2 mps 633 mmHg 91%
    21:00 -2°C° 0 mm 2 mps 633 mmHg 91%
    22:00 -3°C° 0 mm 2 mps 633 mmHg 92%
    23:00 -3°C° 0 mm 2 mps 634 mmHg 91%

    Day after tomorrow, 25 September, Tuesday

    Time Temperature Precipitation Wind Pressure Humidity
    00:00 -3°C° 0 mm 2 mps 634 mmHg 91%
    01:00 -3°C° 0 mm 2 mps 634 mmHg 91%
    02:00 -3°C° 0 mm 2 mps 634 mmHg 91%
    03:00 -3°C° 0 mm 2 mps 634 mmHg 91%
    04:00 -3°C° 0 mm 2 mps 634 mmHg 91%
    05:00 -1°C° 0 mm 1 mps 634 mmHg 90%
    06:00 -1°C° 0 mm 1 mps 635 mmHg 89%
    07:00 0°C° 0 mm 1 mps 635 mmHg 88%
    08:00 +1°C° 0 mm 1 mps 636 mmHg 80%
    09:00 +2°C° 0 mm 2 mps 636 mmHg 73%
    10:00 +3°C° 0 mm 2 mps 637 mmHg 65%
    11:00 +4°C° 0 mm 2 mps 637 mmHg 60%
    12:00 +5°C° 0 mm 2 mps 637 mmHg 55%
    13:00 +6°C° 0 mm 2 mps 637 mmHg 49%
    14:00 +6°C° 0 mm 2 mps 637 mmHg 51%
    15:00 +6°C° 0 mm 2 mps 636 mmHg 52%
    16:00 +6°C° 0 mm 2 mps 636 mmHg 54%
    17:00 +4°C° 0 mm 1 mps 636 mmHg 63%
    18:00 +2°C° 0 mm 1 mps 635 mmHg 72%
    19:00 0°C° 0 mm 1 mps 635 mmHg 81%
    20:00 -1°C° 0 mm 1 mps 635 mmHg 82%
    21:00 -1°C° 0 mm 1 mps 635 mmHg 82%
    22:00 -1°C° 0 mm 1 mps 635 mmHg 82%
    23:00 -1°C° 0 mm 1 mps 635 mmHg 81%

    26 September, Wednesday

    Time Temperature Precipitation Wind Pressure Humidity
    00:00 -1°C° 0 mm 1 mps 635 mmHg 80%
    01:00 -1°C° 0 mm 1 mps 635 mmHg 79%
    02:00 -1°C° 0 mm 1 mps 635 mmHg 78%
    03:00 -1°C° 0 mm 1 mps 635 mmHg 77%
    04:00 -1°C° 0 mm 1 mps 634 mmHg 75%
    05:00 0°C° 0 mm 1 mps 635 mmHg 71%
    06:00 0°C° 0 mm 1 mps 635 mmHg 67%
    07:00 +1°C° 0 mm 1 mps 635 mmHg 62%
    08:00 +4°C° 0 mm 1 mps 636 mmHg 54%
    09:00 +8°C° 0 mm 1 mps 637 mmHg 46%
    10:00 +11°C° 0 mm 1 mps 639 mmHg 38%
    11:00 +13°C° 0 mm 1 mps 639 mmHg 37%
    12:00 +14°C° 0 mm 1 mps 639 mmHg 35%
    13:00 +15°C° 0 mm 1 mps 639 mmHg 34%
    14:00 +14°C° 0 mm 1 mps 638 mmHg 40%
    15:00 +14°C° 0 mm 1 mps 638 mmHg 45%
    16:00 +13°C° 0 mm 1 mps 637 mmHg 51%
    17:00 +10°C° 0 mm 1 mps 636 mmHg 61%
    18:00 +7°C° 0 mm 1 mps 636 mmHg 70%
    19:00 +5°C° 0 mm 1 mps 635 mmHg 80%
    20:00 +5°C° 0 mm 1 mps 635 mmHg 78%
    21:00 +4°C° 0 mm 1 mps 635 mmHg 75%
    22:00 +4°C° 0 mm 1 mps 635 mmHg 72%
    23:00 +4°C° 0 mm 1 mps 635 mmHg 67%

    27 September, Thursday

    Time Temperature Precipitation Wind Pressure Humidity
    00:00 +4°C° 0 mm 1 mps 635 mmHg 62%
    01:00 +4°C° 0 mm 1 mps 635 mmHg 57%
    02:00 +4°C° 0 mm 1 mps 635 mmHg 53%
    03:00 +4°C° 0 mm 1 mps 634 mmHg 50%
    04:00 +4°C° 0 mm 1 mps 634 mmHg 46%
    05:00 +4°C° 0 mm 1 mps 634 mmHg 48%
    06:00 +5°C° 0 mm 1 mps 635 mmHg 50%
    07:00 +5°C° 0 mm 1 mps 635 mmHg 51%
    08:00 +8°C° 0 mm 1 mps 636 mmHg 48%
    09:00 +11°C° 0 mm 1 mps 637 mmHg 45%
    10:00 +14°C° 0 mm 1 mps 638 mmHg 42%
    11:00 +15°C° 0 mm 1 mps 638 mmHg 40%
    12:00 +16°C° 0 mm 1 mps 638 mmHg 39%
    13:00 +18°C° 0 mm 1 mps 638 mmHg 38%
    14:00 +16°C° 0 mm 1 mps 637 mmHg 43%
    15:00 +16°C° 0 mm 1 mps 637 mmHg 48%
    16:00 +15°C° 0 mm 1 mps 636 mmHg 53%
    17:00 +12°C° 0 mm 1 mps 635 mmHg 63%
    18:00 +9°C° 0 mm 1 mps 634 mmHg 73%
    19:00 +7°C° 0 mm 1 mps 633 mmHg 83%
    20:00 +6°C° 0 mm 1 mps 633 mmHg 81%
    21:00 +6°C° 0 mm 1 mps 633 mmHg 80%
    22:00 +6°C° 0 mm 1 mps 632 mmHg 79%
    23:00 +6°C° 0 mm 1 mps 632 mmHg 77%

    28 September, Friday

    Time Temperature Precipitation Wind Pressure Humidity
    00:00 +5°C° 0 mm 1 mps 632 mmHg 75%
    01:00 +5°C° 0 mm 1 mps 631 mmHg 74%
    02:00 +5°C° 0 mm 1 mps 631 mmHg 72%
    03:00 +5°C° 0 mm 1 mps 631 mmHg 70%
    04:00 +5°C° 0 mm 1 mps 630 mmHg 68%
    05:00 +5°C° 0 mm 1 mps 630 mmHg 66%
    06:00 +6°C° 0 mm 1 mps 630 mmHg 64%
    07:00 +6°C° 0 mm 1 mps 630 mmHg 62%
    08:00 +9°C° 0 mm 1 mps 631 mmHg 54%
    09:00 +13°C° 0 mm 1 mps 632 mmHg 47%
    10:00 +15°C° 0 mm 0 mps 633 mmHg 40%
    11:00 +16°C° 0 mm 0 mps 633 mmHg 39%
    12:00 +18°C° 0 mm 1 mps 633 mmHg 38%
    13:00 +19°C° 0 mm 1 mps 632 mmHg 37%
    14:00 +18°C° 0 mm 1 mps 632 mmHg 43%
    15:00 +18°C° 0 mm 1 mps 631 mmHg 48%
    16:00 +16°C° 0 mm 1 mps 630 mmHg 53%
    17:00 +13°C° 0 mm 1 mps 629 mmHg 64%
    18:00 +10°C° 0 mm 1 mps 628 mmHg 75%
    19:00 +8°C° 0 mm 1 mps 627 mmHg 85%
    20:00 +7°C° 0 mm 1 mps 627 mmHg 85%
    21:00 +7°C° 0 mm 1 mps 627 mmHg 84%
    22:00 +7°C° 0 mm 1 mps 627 mmHg 84%
    23:00 +7°C° 0 mm 1 mps 627 mmHg 82%
    Show more